This is the latest recevied weather packets stored in our database for station/object G4KVI. If no packets are shown the sender has not sent any weather packets the latest 1 day(s).
| Time | Temp. | Humidity | Pressure | Rain* | Wind** | Luminosity | Snow |
|---|---|---|---|---|---|---|---|
| 1778043603 | 8.33° C | 76% | 1015.4 hPa | 0 mm | 1.34 m/s, 77° | 6 W/m² | - |
| 1778043303 | 8.33° C | 76% | 1015.6 hPa | 0 mm | 0.89 m/s, 77° | 5 W/m² | - |
| 1778043003 | 8.33° C | 76% | 1015.5 hPa | 0 mm | 0.89 m/s, 75° | 4 W/m² | - |
| 1778042703 | 8.33° C | 76% | 1015.5 hPa | 0 mm | 0.89 m/s, 70° | 3 W/m² | - |
| 1778042403 | 8.89° C | 76% | 1015.4 hPa | 0 mm | 1.34 m/s, 71° | 2 W/m² | - |
| 1778042103 | 8.89° C | 76% | 1015.4 hPa | 0 mm | 1.34 m/s, 76° | 1 W/m² | - |
| 1778041803 | 8.89° C | 75% | 1015.3 hPa | 0 mm | 1.34 m/s, 76° | 0 W/m² | - |
| 1778041503 | 8.89° C | 75% | 1015.4 hPa | 0 mm | 1.34 m/s, 78° | 0 W/m² | - |
| 1778041203 | 8.89° C | 75% | 1015.2 hPa | 0 mm | 1.34 m/s, 78° | 0 W/m² | - |
| 1778040903 | 8.89° C | 75% | 1015.2 hPa | 0 mm | 1.34 m/s, 76° | 0 W/m² | - |
| 1778040603 | 8.89° C | 75% | 1015.4 hPa | 0 mm | 0.89 m/s, 72° | 0 W/m² | - |
| 1778040303 | 8.89° C | 76% | 1015.4 hPa | 0 mm | 1.34 m/s, 73° | 0 W/m² | - |
| 1778040003 | 8.89° C | 76% | 1015.3 hPa | 0 mm | 1.34 m/s, 70° | 0 W/m² | - |
| 1778039703 | 8.89° C | 76% | 1015.3 hPa | 0 mm | 1.34 m/s, 60° | 0 W/m² | - |
| 1778039403 | 8.89° C | 76% | 1015.2 hPa | 0 mm | 1.34 m/s, 63° | 0 W/m² | - |
| 1778039103 | 9.44° C | 76% | 1015.4 hPa | 0 mm | 1.34 m/s, 69° | 0 W/m² | - |
| 1778038803 | 9.44° C | 77% | 1015.5 hPa | 0 mm | 1.34 m/s, 71° | 0 W/m² | - |
| 1778038503 | 9.44° C | 78% | 1015.2 hPa | 0 mm | 1.34 m/s, 75° | 0 W/m² | - |
| 1778038203 | 9.44° C | 77% | 1015.4 hPa | 0 mm | 0.89 m/s, 82° | 0 W/m² | - |
| 1778037903 | 9.44° C | 77% | 1015.3 hPa | 0 mm | 0.89 m/s, 90° | 0 W/m² | - |
| 1778037603 | 9.44° C | 77% | 1015.3 hPa | 0 mm | 1.34 m/s, 86° | 0 W/m² | - |
| 1778037303 | 9.44° C | 76% | 1015.4 hPa | 0 mm | 1.34 m/s, 90° | 0 W/m² | - |
| 1778037003 | 9.44° C | 77% | 1015.5 hPa | 0 mm | 1.34 m/s, 88° | 0 W/m² | - |
| 1778036703 | 10° C | 77% | 1015.5 hPa | 0 mm | 1.34 m/s, 70° | 0 W/m² | - |
| 1778036403 | 10° C | 77% | 1015.6 hPa | 0 mm | 1.34 m/s, 72° | 0 W/m² | - |
* Rain latest hour (hover to see other rain measurements)
** Current wind speed in m/s (hover to see current wind gust speed)